When you browse on this site, cookies collect data to enhance your experience and personalize the content and advertising you see.
Visit our Privacy Policy to learn more. By continuing to use the site, you agree to this use of cookies and data.
  • In Austria
  • List of Countries
  • For 7 days
  • Water Temperature
  • Weather Map
  • News
  • Weather Widgets
  • user-avatar
    Login

    Hourly Weather Streamwood

    Today, 30 May, Saturday

    Time Temperature Precipitation Wind Pressure Humidity
    00:00 +12°C° 0 mm 3 mps 742 mmHg 84%
    01:00 +11°C° 0 mm 3 mps 742 mmHg 85%
    02:00 +12°C° 0 mm 2 mps 742 mmHg 86%
    03:00 +12°C° 0 mm 2 mps 742 mmHg 87%
    04:00 +12°C° 0 mm 2 mps 743 mmHg 85%
    05:00 +12°C° 0 mm 2 mps 743 mmHg 83%
    06:00 +12°C° 0 mm 3 mps 744 mmHg 81%
    07:00 +14°C° 0 mm 3 mps 744 mmHg 74%
    08:00 +16°C° 0 mm 3 mps 744 mmHg 67%
    09:00 +18°C° 0 mm 3 mps 744 mmHg 59%
    10:00 +19°C° 0 mm 3 mps 744 mmHg 58%
    11:00 +20°C° 0 mm 4 mps 744 mmHg 56%
    12:00 +21°C° 0 mm 5 mps 744 mmHg 55%
    13:00 +21°C° 0 mm 5 mps 744 mmHg 55%
    14:00 +21°C° 0 mm 5 mps 744 mmHg 55%
    15:00 +21°C° 0 mm 5 mps 743 mmHg 54%
    16:00 +20°C° 0 mm 5 mps 744 mmHg 58%
    17:00 +19°C° 0 mm 5 mps 744 mmHg 61%
    18:00 +18°C° 0 mm 4 mps 744 mmHg 64%
    19:00 +15°C° 0 mm 4 mps 745 mmHg 68%
    20:00 +13°C° 0 mm 4 mps 745 mmHg 73%
    21:00 +11°C° 0 mm 3 mps 745 mmHg 77%
    22:00 +11°C° 0 mm 3 mps 746 mmHg 76%
    23:00 +10°C° 0 mm 3 mps 746 mmHg 74%

    Tomorrow, 31 May, Sunday

    Time Temperature Precipitation Wind Pressure Humidity
    00:00 +10°C° 0 mm 2 mps 746 mmHg 73%
    01:00 +10°C° 0 mm 2 mps 746 mmHg 72%
    02:00 +9°C° 0 mm 2 mps 746 mmHg 71%
    03:00 +10°C° 0 mm 1 mps 747 mmHg 70%
    04:00 +11°C° 0 mm 1 mps 747 mmHg 69%
    05:00 +11°C° 0 mm 1 mps 747 mmHg 67%
    06:00 +12°C° 0 mm 1 mps 748 mmHg 65%
    07:00 +14°C° 0 mm 1 mps 748 mmHg 58%
    08:00 +15°C° 0 mm 1 mps 748 mmHg 50%
    09:00 +18°C° 0 mm 1 mps 748 mmHg 42%
    10:00 +19°C° 0 mm 1 mps 748 mmHg 40%
    11:00 +20°C° 0 mm 1 mps 748 mmHg 37%
    12:00 +21°C° 0 mm 1 mps 748 mmHg 35%
    13:00 +20°C° 0 mm 2 mps 748 mmHg 37%
    14:00 +20°C° 0 mm 2 mps 747 mmHg 38%
    15:00 +20°C° 0 mm 2 mps 747 mmHg 40%
    16:00 +20°C° 0 mm 2 mps 746 mmHg 45%
    17:00 +19°C° 0 mm 2 mps 746 mmHg 50%
    18:00 +20°C° 0 mm 1 mps 746 mmHg 54%
    19:00 +18°C° 0 mm 1 mps 746 mmHg 54%
    20:00 +16°C° 0 mm 1 mps 746 mmHg 55%
    21:00 +14°C° 0 mm 1 mps 746 mmHg 55%
    22:00 +14°C° 0 mm 2 mps 746 mmHg 56%
    23:00 +14°C° 0 mm 2 mps 746 mmHg 57%

    Day after tomorrow, 1 June, Monday

    Time Temperature Precipitation Wind Pressure Humidity
    00:00 +13°C° 0 mm 2 mps 746 mmHg 57%
    01:00 +13°C° 0 mm 2 mps 746 mmHg 59%
    02:00 +13°C° 0 mm 2 mps 745 mmHg 60%
    03:00 +11°C° 0 mm 3 mps 745 mmHg 61%
    04:00 +12°C° 0 mm 3 mps 745 mmHg 61%
    05:00 +12°C° 0 mm 3 mps 745 mmHg 60%
    06:00 +13°C° 0 mm 3 mps 746 mmHg 60%
    07:00 +13°C° 0 mm 3 mps 745 mmHg 61%
    08:00 +13°C° 0 mm 4 mps 745 mmHg 61%
    09:00 +13°C° 0 mm 4 mps 745 mmHg 62%
    10:00 +13°C° 0 mm 4 mps 744 mmHg 64%
    11:00 +14°C° 0 mm 4 mps 744 mmHg 66%
    12:00 +14°C° 0 mm 5 mps 744 mmHg 69%
    13:00 +16°C° 0 mm 5 mps 743 mmHg 68%
    14:00 +20°C° 0 mm 6 mps 742 mmHg 68%
    15:00 +22°C° 0 mm 6 mps 742 mmHg 68%
    16:00 +22°C° 0 mm 6 mps 741 mmHg 72%
    17:00 +22°C° 0 mm 5 mps 740 mmHg 75%
    18:00 +22°C° 0 mm 5 mps 740 mmHg 79%
    19:00 +22°C° 0 mm 5 mps 740 mmHg 80%
    20:00 +22°C° 0 mm 6 mps 739 mmHg 82%
    21:00 +21°C° 0 mm 6 mps 739 mmHg 83%
    22:00 +21°C° 0 mm 6 mps 739 mmHg 84%
    23:00 +21°C° 0 mm 6 mps 739 mmHg 85%

    2 June, Tuesday

    Time Temperature Precipitation Wind Pressure Humidity
    00:00 +20°C° 0 mm 6 mps 739 mmHg 87%
    01:00 +20°C° 0 mm 6 mps 738 mmHg 88%
    02:00 +20°C° 0 mm 6 mps 738 mmHg 90%
    03:00 +20°C° 0 mm 6 mps 738 mmHg 92%
    04:00 +20°C° 0 mm 6 mps 738 mmHg 91%
    05:00 +20°C° 0 mm 6 mps 738 mmHg 89%
    06:00 +21°C° 0 mm 6 mps 738 mmHg 87%
    07:00 +22°C° 0 mm 6 mps 738 mmHg 83%
    08:00 +23°C° 0 mm 6 mps 738 mmHg 79%
    09:00 +24°C° 0 mm 7 mps 738 mmHg 75%
    10:00 +27°C° 0 mm 6 mps 738 mmHg 73%
    11:00 +28°C° 0 mm 6 mps 738 mmHg 71%
    12:00 +29°C° 0 mm 6 mps 738 mmHg 69%
    13:00 +30°C° 0 mm 6 mps 737 mmHg 69%
    14:00 +30°C° 0 mm 6 mps 737 mmHg 70%
    15:00 +30°C° 0 mm 6 mps 737 mmHg 70%
    16:00 +30°C° 0 mm 5 mps 737 mmHg 72%
    17:00 +30°C° 0 mm 5 mps 737 mmHg 75%
    18:00 +29°C° 0 mm 4 mps 737 mmHg 78%
    19:00 +28°C° 0 mm 4 mps 737 mmHg 82%
    20:00 +27°C° 0 mm 3 mps 737 mmHg 86%
    21:00 +26°C° 0 mm 3 mps 737 mmHg 90%
    22:00 +25°C° 0 mm 3 mps 737 mmHg 91%
    23:00 +25°C° 0 mm 3 mps 738 mmHg 92%

    3 June, Wednesday

    Time Temperature Precipitation Wind Pressure Humidity
    00:00 +25°C° 0 mm 3 mps 738 mmHg 93%
    01:00 +24°C° 0 mm 3 mps 738 mmHg 94%
    02:00 +23°C° 0 mm 4 mps 737 mmHg 94%
    03:00 +23°C° 0 mm 4 mps 737 mmHg 95%
    04:00 +23°C° 0 mm 4 mps 737 mmHg 94%
    05:00 +25°C° 0 mm 4 mps 737 mmHg 93%
    06:00 +25°C° 0 mm 5 mps 737 mmHg 93%
    07:00 +26°C° 0 mm 5 mps 737 mmHg 87%
    08:00 +27°C° 0 mm 5 mps 737 mmHg 82%
    09:00 +28°C° 0 mm 5 mps 737 mmHg 77%
    10:00 +29°C° 0.2 mm 5 mps 737 mmHg 74%
    11:00 +30°C° 0.2 mm 6 mps 737 mmHg 70%
    12:00 +32°C° 0.2 mm 6 mps 736 mmHg 66%
    13:00 +32°C° 0.2 mm 6 mps 736 mmHg 67%
    14:00 +32°C° 0.2 mm 6 mps 736 mmHg 68%
    15:00 +32°C° 0.2 mm 6 mps 735 mmHg 68%
    16:00 +30°C° 0.4 mm 6 mps 735 mmHg 72%
    17:00 +29°C° 0.4 mm 5 mps 735 mmHg 76%
    18:00 +28°C° 0.4 mm 4 mps 735 mmHg 80%
    19:00 +28°C° 0.1 mm 4 mps 735 mmHg 82%
    20:00 +27°C° 0.1 mm 3 mps 735 mmHg 84%
    21:00 +26°C° 0.1 mm 2 mps 735 mmHg 86%
    22:00 +26°C° 0.3 mm 2 mps 735 mmHg 88%
    23:00 +25°C° 0.3 mm 2 mps 735 mmHg 89%

    4 June, Thursday

    Time Temperature Precipitation Wind Pressure Humidity
    00:00 +25°C° 0.3 mm 1 mps 735 mmHg 91%
    01:00 +24°C° 0.2 mm 2 mps 735 mmHg 91%
    02:00 +24°C° 0.2 mm 2 mps 736 mmHg 91%
    03:00 +23°C° 0.2 mm 2 mps 736 mmHg 91%
    04:00 +24°C° 0.3 mm 2 mps 736 mmHg 90%
    05:00 +24°C° 0.3 mm 2 mps 737 mmHg 88%
    06:00 +24°C° 0.3 mm 2 mps 737 mmHg 86%
    07:00 +25°C° 0 mm 2 mps 737 mmHg 79%
    08:00 +26°C° 0 mm 2 mps 738 mmHg 72%
    09:00 +27°C° 0 mm 2 mps 738 mmHg 66%
    10:00 +29°C° 0 mm 2 mps 738 mmHg 63%
    11:00 +30°C° 0 mm 2 mps 738 mmHg 60%
    12:00 +31°C° 0 mm 2 mps 738 mmHg 57%
    13:00 +31°C° 0 mm 2 mps 738 mmHg 57%
    14:00 +30°C° 0 mm 3 mps 738 mmHg 57%
    15:00 +30°C° 0 mm 3 mps 738 mmHg 57%
    16:00 +29°C° 0 mm 3 mps 738 mmHg 60%
    17:00 +28°C° 0 mm 3 mps 738 mmHg 63%
    18:00 +27°C° 0 mm 3 mps 738 mmHg 66%
    19:00 +26°C° 0 mm 3 mps 738 mmHg 67%
    20:00 +24°C° 0 mm 3 mps 738 mmHg 68%
    21:00 +22°C° 0 mm 3 mps 738 mmHg 69%
    22:00 +22°C° 0 mm 3 mps 738 mmHg 72%
    23:00 +21°C° 0 mm 3 mps 738 mmHg 75%
    Show more